M I D A S
Marine Information and Data Acquisition System
Tripno 2061 of the Zeeleeuw from 2011-03-21 07:44:49 to 2011-03-21 15:48:16
Back to CruiseResearch ActivitiesStationsMapUnderway DataData graphs

EquipmentUnitsComments
TimeDGPSUTC
LatitudeDGPSDM.mWGS84
LongitudeDGPSDM.mWGS84
SpeedMeteo Stationm/sRelative wind speed
DirectionMeteo StationdegRelative wind direction
TemperatureMeteo Stationdeg CelciusAir temperature
PressureMeteo StationPaAtmospheric pressure
HumidityMeteo Station%Relative humidity
Missing or incorrect values are displayed as -999
Metereological data collected by the RV Zeeleeuw from 2011-03-21 07:44:43 to 2011-03-21 15:49:14
                                                                                    Next 1000 lines
Time Latitude Longitude Speed Direction Temperature Pressure Humidity
2011-03-21 07:44:53 51°13.661 2°55.956 -999 10 4.8 103520 46
2011-03-21 07:44:58 51°13.662 2°55.953 -999 9 4.8 103520 46
2011-03-21 07:45:03 51°13.664 2°55.95 -999 30 4.8 103520 46
2011-03-21 07:45:07 51°13.664 2°55.947 -999 38 4.8 103520 46
2011-03-21 07:45:13 51°13.666 2°55.942 -999 41 4.8 103520 46
2011-03-21 07:45:17 51°13.667 2°55.938 -999 41 4.9 103520 46
2011-03-21 07:45:23 51°13.668 2°55.931 -999 54 4.9 103520 46
2011-03-21 07:45:28 51°13.67 2°55.926 -999 23 4.8 103520 46
2011-03-21 07:45:33 51°13.672 2°55.919 -999 77 4.8 103520 46
2011-03-21 07:45:38 51°13.674 2°55.912 -999 41 4.9 103520 46
2011-03-21 07:45:43 51°13.675 2°55.905 -999 44 4.9 103520 46
2011-03-21 07:45:49 51°13.677 2°55.896 -999 23 4.9 103520 45
2011-03-21 07:45:53 51°13.679 2°55.89 -999 77 4.9 103520 45
2011-03-21 07:45:58 51°13.68 2°55.882 -999 36 4.9 103520 46
2011-03-21 07:46:03 51°13.682 2°55.873 -999 41 4.9 103520 46
2011-03-21 07:46:09 51°13.683 2°55.863 -999 23 4.9 103520 46
2011-03-21 07:46:14 51°13.685 2°55.854 -999 77 4.9 103520 46
2011-03-21 07:46:18 51°13.686 2°55.847 -999 23 4.9 103520 46
2011-03-21 07:46:23 51°13.687 2°55.839 -999 77 4.9 103520 46
2011-03-21 07:46:28 51°13.689 2°55.83 -999 23 4.8 103520 46
2011-03-21 07:46:34 51°13.69 2°55.82 -999 77 4.8 103520 46
2011-03-21 07:46:38 51°13.691 2°55.813 -999 25 4.8 103520 46
2011-03-21 07:46:43 51°13.691 2°55.805 -999 77 4.8 103520 46
2011-03-21 07:46:48 51°13.692 2°55.797 -999 23 4.8 103530 46
2011-03-21 07:46:53 51°13.693 2°55.789 -999 77 4.8 103530 46
2011-03-21 07:46:58 51°13.693 2°55.782 -999 23 4.8 103520 46
2011-03-21 07:47:03 51°13.694 2°55.776 -999 77 4.8 103520 46
2011-03-21 07:47:08 51°13.694 2°55.772 -999 23 4.8 103520 46
2011-03-21 07:47:13 51°13.695 2°55.771 -999 77 4.8 103520 46
2011-03-21 07:47:18 51°13.695 2°55.771 -999 24 4.9 103530 46
2011-03-21 07:47:23 51°13.696 2°55.773 -999 53 4.9 103530 46
2011-03-21 07:47:28 51°13.698 2°55.775 -999 23 4.8 103530 46
2011-03-21 07:47:33 51°13.699 2°55.778 -999 283 4.8 103530 46
2011-03-21 07:47:38 51°13.701 2°55.779 -999 348 4.8 103520 46
2011-03-21 07:47:43 51°13.702 2°55.78 0.1 352 4.8 103520 46
2011-03-21 07:47:48 51°13.702 2°55.78 0.1 355 4.9 103530 46
2011-03-21 07:47:53 51°13.702 2°55.78 0.1 53 4.9 103530 46
2011-03-21 07:47:58 51°13.701 2°55.778 -999 23 4.9 103530 46
2011-03-21 07:48:03 51°13.699 2°55.776 0.1 76 4.9 103530 46
2011-03-21 07:48:08 51°13.698 2°55.774 0.1 26 4.9 103530 46
2011-03-21 07:48:13 51°13.696 2°55.772 0.1 77 4.9 103530 46
2011-03-21 07:48:18 51°13.694 2°55.77 -999 23 4.9 103530 46
2011-03-21 07:48:23 51°13.694 2°55.77 -999 77 4.9 103530 46
2011-03-21 07:48:28 51°13.695 2°55.77 -999 23 4.9 103530 45
2011-03-21 07:48:34 51°13.699 2°55.77 -999 283 4.9 103530 45
2011-03-21 07:48:38 51°13.702 2°55.77 -999 23 4.9 103530 46
2011-03-21 07:48:43 51°13.706 2°55.769 -999 283 4.9 103530 46
2011-03-21 07:48:48 51°13.711 2°55.766 0.1 21 5 103530 46
2011-03-21 07:48:54 51°13.716 2°55.762 0.1 283 5 103530 46
2011-03-21 07:48:58 51°13.719 2°55.759 -999 23 5 103530 46
2011-03-21 07:49:03 51°13.723 2°55.755 -999 283 5 103530 46
2011-03-21 07:49:07 51°13.726 2°55.752 -999 23 5 103530 46
2011-03-21 07:49:12 51°13.729 2°55.748 -999 283 5 103530 46
2011-03-21 07:49:18 51°13.734 2°55.742 -999 23 5 103530 46
2011-03-21 07:49:22 51°13.737 2°55.738 -999 283 5 103530 46
2011-03-21 07:49:28 51°13.742 2°55.731 -999 23 5 103530 46
2011-03-21 07:49:33 51°13.747 2°55.725 -999 283 5 103530 46
2011-03-21 07:49:38 51°13.752 2°55.718 -999 322 5 103530 46
2011-03-21 07:49:42 51°13.756 2°55.712 -999 283 5 103530 46
2011-03-21 07:49:47 51°13.762 2°55.704 -999 319 5.1 103530 46
2011-03-21 07:49:52 51°13.768 2°55.697 -999 283 5.1 103530 46
2011-03-21 07:49:57 51°13.775 2°55.689 -999 319 5.1 103530 46
2011-03-21 07:50:02 51°13.782 2°55.682 -999 283 5.1 103530 46
2011-03-21 07:50:08 51°13.79 2°55.674 -999 321 5.1 103530 46
2011-03-21 07:50:13 51°13.797 2°55.666 -999 283 5.1 103530 46
2011-03-21 07:50:18 51°13.805 2°55.659 -999 331 5.1 103530 46
2011-03-21 07:50:23 51°13.813 2°55.653 -999 283 5.1 103530 46
2011-03-21 07:50:28 51°13.821 2°55.646 -999 320 5.1 103530 46
2011-03-21 07:50:33 51°13.829 2°55.639 -999 283 5.1 103530 46
2011-03-21 07:50:38 51°13.838 2°55.633 -999 323 5.2 103530 46
2011-03-21 07:50:43 51°13.846 2°55.626 -999 283 5.2 103530 46
2011-03-21 07:50:48 51°13.854 2°55.62 -999 321 5.2 103530 46
2011-03-21 07:50:53 51°13.863 2°55.613 -999 283 5.2 103530 46
2011-03-21 07:50:58 51°13.872 2°55.607 -999 322 5.2 103530 46
2011-03-21 07:51:03 51°13.881 2°55.601 -999 283 5.2 103530 46
2011-03-21 07:51:08 51°13.889 2°55.594 -999 326 5.1 103530 45
2011-03-21 07:51:13 51°13.898 2°55.587 -999 283 5.1 103530 45
2011-03-21 07:51:18 51°13.907 2°55.581 -999 315 5.2 103530 45
2011-03-21 07:51:23 51°13.916 2°55.575 0.1 283 5.2 103530 45
2011-03-21 07:51:28 51°13.925 2°55.568 0.1 321 5.2 103530 45
2011-03-21 07:51:33 51°13.934 2°55.561 -999 283 5.2 103530 45
2011-03-21 07:51:38 51°13.943 2°55.555 -999 321 5.2 103530 45
2011-03-21 07:51:43 51°13.952 2°55.548 -999 283 5.2 103530 45
2011-03-21 07:51:48 51°13.961 2°55.542 -999 328 5.2 103530 45
2011-03-21 07:51:53 51°13.97 2°55.536 -999 283 5.2 103530 45
2011-03-21 07:51:58 51°13.979 2°55.529 -999 333 5.2 103520 45
2011-03-21 07:52:03 51°13.989 2°55.523 -999 283 5.2 103520 45
2011-03-21 07:52:08 51°13.998 2°55.517 -999 324 5.2 103530 45
2011-03-21 07:52:13 51°14.007 2°55.51 -999 283 5.2 103530 45
2011-03-21 07:52:18 51°14.016 2°55.503 -999 324 5.2 103530 45
2011-03-21 07:52:23 51°14.025 2°55.497 -999 283 5.2 103530 45
2011-03-21 07:52:28 51°14.034 2°55.49 -999 322 5.2 103520 45
2011-03-21 07:52:33 51°14.043 2°55.483 -999 283 5.2 103520 45
2011-03-21 07:52:38 51°14.052 2°55.477 -999 321 5.2 103530 45
2011-03-21 07:52:43 51°14.061 2°55.47 -999 283 5.2 103530 45
2011-03-21 07:52:49 51°14.072 2°55.462 0.1 324 5.2 103530 45
2011-03-21 07:52:53 51°14.079 2°55.456 0.1 283 5.2 103530 45
2011-03-21 07:52:58 51°14.088 2°55.449 -999 326 5.2 103530 44
2011-03-21 07:53:03 51°14.097 2°55.442 -999 283 5.2 103530 44
2011-03-21 07:53:08 51°14.106 2°55.435 -999 327 5.2 103520 44
2011-03-21 07:53:14 51°14.117 2°55.426 -999 283 5.2 103520 44
2011-03-21 07:53:18 51°14.124 2°55.421 -999 327 5.2 103520 44
2011-03-21 07:53:23 51°14.133 2°55.414 -999 283 5.2 103520 44
2011-03-21 07:53:28 51°14.142 2°55.407 -999 322 5.2 103520 44
2011-03-21 07:53:33 51°14.151 2°55.399 -999 283 5.2 103520 44
2011-03-21 07:53:38 51°14.16 2°55.392 -999 325 5.2 103530 44
2011-03-21 07:53:43 51°14.168 2°55.384 -999 283 5.2 103530 44
2011-03-21 07:53:48 51°14.177 2°55.376 -999 329 5.2 103530 43
2011-03-21 07:53:53 51°14.186 2°55.369 -999 283 5.2 103530 43
2011-03-21 07:53:58 51°14.195 2°55.361 -999 327 5.3 103520 44
2011-03-21 07:54:03 51°14.203 2°55.353 -999 283 5.3 103520 44
2011-03-21 07:54:08 51°14.212 2°55.345 -999 325 5.3 103520 44
2011-03-21 07:54:13 51°14.22 2°55.337 -999 283 5.3 103520 44
2011-03-21 07:54:18 51°14.229 2°55.329 -999 320 5.3 103530 44
2011-03-21 07:54:23 51°14.237 2°55.32 -999 283 5.3 103530 44
2011-03-21 07:54:29 51°14.247 2°55.31 -999 327 5.3 103520 44
2011-03-21 07:54:33 51°14.254 2°55.304 -999 283 5.3 103520 44
2011-03-21 07:54:38 51°14.263 2°55.295 -999 322 5.3 103530 44
2011-03-21 07:54:43 51°14.271 2°55.287 -999 283 5.3 103530 44
2011-03-21 07:54:48 51°14.28 2°55.278 -999 328 5.3 103530 44
2011-03-21 07:54:53 51°14.288 2°55.27 -999 283 5.3 103530 44
2011-03-21 07:54:58 51°14.297 2°55.261 -999 316 5.3 103520 44
2011-03-21 07:55:03 51°14.305 2°55.253 -999 283 5.3 103520 44
2011-03-21 07:55:08 51°14.314 2°55.244 -999 321 5.4 103530 44
2011-03-21 07:55:13 51°14.322 2°55.235 -999 283 5.4 103530 44
2011-03-21 07:55:18 51°14.332 2°55.225 -999 330 5.4 103530 44
2011-03-21 07:55:23 51°14.341 2°55.215 -999 283 5.4 103530 44
2011-03-21 07:55:28 51°14.351 2°55.204 -999 330 5.4 103520 44
2011-03-21 07:55:33 51°14.362 2°55.194 -999 283 5.4 103520 44
2011-03-21 07:55:38 51°14.373 2°55.183 -999 332 5.4 103520 44
2011-03-21 07:55:43 51°14.384 2°55.172 -999 283 5.4 103520 44
2011-03-21 07:55:48 51°14.395 2°55.16 -999 332 5.4 103520 44
2011-03-21 07:55:53 51°14.406 2°55.149 0.1 286 5.4 103520 44
2011-03-21 07:55:58 51°14.418 2°55.137 0.9 332 5.5 103530 44
2011-03-21 07:56:03 51°14.43 2°55.125 1.1 284 5.5 103530 44
2011-03-21 07:56:08 51°14.442 2°55.113 2.2 328 5.5 103520 44
2011-03-21 07:56:13 51°14.454 2°55.101 2.1 281 5.5 103520 44
2011-03-21 07:56:18 51°14.466 2°55.088 2.8 329 5.5 103520 44
2011-03-21 07:56:23 51°14.478 2°55.076 2.8 280 5.5 103520 44
2011-03-21 07:56:28 51°14.49 2°55.063 3 331 5.5 103520 43
2011-03-21 07:56:33 51°14.502 2°55.05 3.2 280 5.5 103520 43
2011-03-21 07:56:38 51°14.515 2°55.037 1.1 330 5.5 103530 43
2011-03-21 07:56:42 51°14.524 2°55.027 1.9 286 5.5 103530 43
2011-03-21 07:56:47 51°14.536 2°55.013 1.9 326 5.6 103520 44
2011-03-21 07:56:52 51°14.548 2°54.998 3.4 285 5.6 103520 44
2011-03-21 07:56:57 51°14.559 2°54.982 4.5 324 5.6 103530 43
2011-03-21 07:57:02 51°14.57 2°54.965 3.9 281 5.6 103530 43
2011-03-21 07:57:06 51°14.579 2°54.952 4.7 319 5.6 103530 43
2011-03-21 07:57:11 51°14.59 2°54.937 3.9 285 5.6 103530 43
2011-03-21 07:57:16 51°14.601 2°54.921 4.5 318 5.6 103520 43
2011-03-21 07:57:21 51°14.613 2°54.906 4.2 279 5.6 103520 43
2011-03-21 07:57:26 51°14.625 2°54.891 4.5 318 5.7 103520 43
2011-03-21 07:57:30 51°14.634 2°54.88 4 286 5.7 103520 43
2011-03-21 07:57:35 51°14.646 2°54.866 3.8 319 5.7 103520 43
2011-03-21 07:57:40 51°14.658 2°54.851 4.1 285 5.7 103520 43
2011-03-21 07:57:45 51°14.67 2°54.837 3.8 316 5.7 103520 43
2011-03-21 07:57:50 51°14.682 2°54.822 4 284 5.7 103520 43
2011-03-21 07:57:55 51°14.694 2°54.808 3.7 315 5.8 103520 42
2011-03-21 07:58:00 51°14.706 2°54.792 3.8 279 5.8 103520 42
2011-03-21 07:58:05 51°14.718 2°54.777 4.2 318 5.8 103520 42
2011-03-21 07:58:10 51°14.731 2°54.762 4.4 285 5.8 103520 42
2011-03-21 07:58:15 51°14.744 2°54.747 3.1 316 5.8 103520 42
2011-03-21 07:58:20 51°14.757 2°54.732 2.7 280 5.8 103520 42
2011-03-21 07:58:25 51°14.771 2°54.717 3.4 317 5.8 103520 42
2011-03-21 07:58:30 51°14.785 2°54.703 3.5 283 5.8 103520 42
2011-03-21 07:58:34 51°14.796 2°54.692 3.7 316 5.8 103520 43
2011-03-21 07:58:40 51°14.814 2°54.675 3 281 5.8 103520 43
2011-03-21 07:58:45 51°14.828 2°54.661 0.4 316 5.8 103520 42
2011-03-21 07:58:50 51°14.843 2°54.648 0.1 283 5.8 103520 42
2011-03-21 07:58:54 51°14.855 2°54.637 0.1 317 5.8 103520 44
2011-03-21 07:59:00 51°14.873 2°54.621 -999 283 5.8 103520 44
2011-03-21 07:59:05 51°14.887 2°54.607 -999 317 5.8 103520 42
2011-03-21 07:59:10 51°14.902 2°54.593 -999 283 5.8 103520 42
2011-03-21 07:59:15 51°14.917 2°54.578 -999 317 5.8 103520 43
2011-03-21 07:59:20 51°14.931 2°54.564 -999 283 5.8 103520 43
2011-03-21 07:59:25 51°14.946 2°54.549 -999 319 5.8 103520 43
2011-03-21 07:59:30 51°14.96 2°54.534 -999 283 5.8 103520 43
2011-03-21 07:59:34 51°14.971 2°54.523 -999 316 5.8 103520 43
2011-03-21 07:59:40 51°14.988 2°54.506 -999 283 5.8 103520 43
2011-03-21 07:59:45 51°15.003 2°54.491 -999 318 5.7 103520 42
2011-03-21 07:59:50 51°15.017 2°54.475 -999 283 5.7 103520 42
2011-03-21 07:59:54 51°15.028 2°54.462 -999 316 5.7 103520 43
2011-03-21 08:00:00 51°15.044 2°54.443 -999 283 5.7 103520 43
2011-03-21 08:00:05 51°15.057 2°54.425 -999 316 5.7 103520 43
2011-03-21 08:00:10 51°15.07 2°54.407 -999 283 5.7 103520 43
2011-03-21 08:00:15 51°15.083 2°54.388 -999 317 5.7 103520 43
2011-03-21 08:00:20 51°15.095 2°54.369 -999 283 5.7 103520 43
2011-03-21 08:00:25 51°15.108 2°54.35 -999 315 5.7 103520 43
2011-03-21 08:00:30 51°15.12 2°54.331 -999 283 5.7 103520 43
2011-03-21 08:00:35 51°15.133 2°54.313 -999 317 5.7 103520 43
2011-03-21 08:00:40 51°15.146 2°54.294 -999 283 5.7 103520 43
2011-03-21 08:00:45 51°15.16 2°54.277 -999 315 5.7 103520 43
2011-03-21 08:00:50 51°15.173 2°54.259 -999 283 5.7 103520 43
2011-03-21 08:00:54 51°15.184 2°54.245 -999 316 5.6 103520 43
2011-03-21 08:01:00 51°15.2 2°54.225 -999 283 5.6 103520 43
2011-03-21 08:01:05 51°15.213 2°54.207 -999 317 5.6 103520 43
2011-03-21 08:01:10 51°15.227 2°54.19 -999 283 5.6 103520 43
2011-03-21 08:01:14 51°15.237 2°54.175 -999 316 5.6 103520 43
2011-03-21 08:01:20 51°15.253 2°54.153 -999 283 5.6 103520 43
2011-03-21 08:01:25 51°15.266 2°54.134 -999 318 5.6 103520 43
2011-03-21 08:01:30 51°15.278 2°54.115 -999 283 5.6 103520 43
2011-03-21 08:01:34 51°15.288 2°54.099 -999 316 5.6 103520 43
2011-03-21 08:01:40 51°15.303 2°54.075 -999 283 5.6 103520 43
2011-03-21 08:01:45 51°15.316 2°54.056 -999 317 5.6 103520 42
2011-03-21 08:01:50 51°15.329 2°54.037 -999 283 5.6 103520 42
2011-03-21 08:01:54 51°15.339 2°54.022 -999 23 5.6 103520 44
2011-03-21 08:02:00 51°15.355 2°54 -999 283 5.6 103520 44
2011-03-21 08:02:05 51°15.368 2°53.982 -999 316 5.6 103520 44
2011-03-21 08:02:10 51°15.381 2°53.964 -999 283 5.6 103520 44
2011-03-21 08:02:15 51°15.395 2°53.947 -999 316 5.5 103520 44
2011-03-21 08:02:20 51°15.408 2°53.929 -999 283 5.5 103520 44
2011-03-21 08:02:25 51°15.422 2°53.912 -999 318 5.5 103520 44
2011-03-21 08:02:30 51°15.436 2°53.895 -999 283 5.5 103520 44
2011-03-21 08:02:34 51°15.447 2°53.881 -999 318 5.5 103520 44
2011-03-21 08:02:40 51°15.463 2°53.86 -999 283 5.5 103520 44
2011-03-21 08:02:45 51°15.477 2°53.843 -999 318 5.5 103520 44
2011-03-21 08:02:50 51°15.49 2°53.825 -999 283 5.5 103520 44
2011-03-21 08:02:55 51°15.503 2°53.807 -999 318 5.5 103520 44
2011-03-21 08:03:00 51°15.517 2°53.789 -999 283 5.5 103520 44
2011-03-21 08:03:05 51°15.53 2°53.77 -999 317 5.5 103520 45
2011-03-21 08:03:10 51°15.543 2°53.751 -999 283 5.5 103520 45
2011-03-21 08:03:14 51°15.553 2°53.736 -999 318 5.5 103520 45
2011-03-21 08:03:20 51°15.569 2°53.714 -999 283 5.5 103520 45
2011-03-21 08:03:25 51°15.583 2°53.697 -999 316 5.5 103520 45
2011-03-21 08:03:30 51°15.596 2°53.68 -999 283 5.5 103520 45
2011-03-21 08:03:34 51°15.607 2°53.667 -999 317 5.5 103520 45
2011-03-21 08:03:40 51°15.624 2°53.647 -999 283 5.5 103520 45
2011-03-21 08:03:45 51°15.638 2°53.631 -999 318 5.5 103520 45
2011-03-21 08:03:50 51°15.653 2°53.616 -999 283 5.5 103520 45
2011-03-21 08:03:54 51°15.664 2°53.604 -999 318 5.5 103520 45
2011-03-21 08:04:00 51°15.681 2°53.586 -999 283 5.5 103520 45
2011-03-21 08:04:05 51°15.696 2°53.571 -999 318 5.5 103520 45
2011-03-21 08:04:10 51°15.71 2°53.556 -999 283 5.5 103520 45
2011-03-21 08:04:14 51°15.721 2°53.543 -999 320 5.5 103520 45
2011-03-21 08:04:20 51°15.738 2°53.523 -999 283 5.5 103520 45
2011-03-21 08:04:25 51°15.752 2°53.507 -999 319 5.5 103520 44
2011-03-21 08:04:30 51°15.766 2°53.49 -999 283 5.5 103520 44
2011-03-21 08:04:35 51°15.779 2°53.474 -999 318 5.5 103520 46
2011-03-21 08:04:40 51°15.793 2°53.458 -999 283 5.5 103520 46
2011-03-21 08:04:45 51°15.807 2°53.442 -999 318 5.5 103520 46
2011-03-21 08:04:50 51°15.822 2°53.427 -999 283 5.5 103520 46
2011-03-21 08:04:55 51°15.836 2°53.412 -999 318 5.5 103520 46
2011-03-21 08:05:00 51°15.851 2°53.398 -999 283 5.5 103520 46
2011-03-21 08:05:05 51°15.866 2°53.384 -999 319 5.5 103520 46
2011-03-21 08:05:10 51°15.88 2°53.371 -999 283 5.5 103520 46
2011-03-21 08:05:14 51°15.893 2°53.361 -999 320 5.5 103520 46
2011-03-21 08:05:20 51°15.911 2°53.347 -999 283 5.5 103520 46
2011-03-21 08:05:25 51°15.926 2°53.335 -999 320 5.5 103520 46
2011-03-21 08:05:30 51°15.941 2°53.322 -999 283 5.5 103520 46
2011-03-21 08:05:34 51°15.953 2°53.312 -999 319 5.5 103520 45
2011-03-21 08:05:40 51°15.97 2°53.297 -999 283 5.5 103520 45
2011-03-21 08:05:45 51°15.985 2°53.284 -999 319 5.5 103520 46
2011-03-21 08:05:50 51°16 2°53.271 -999 283 5.5 103520 46
2011-03-21 08:05:54 51°16.012 2°53.26 -999 319 5.5 103520 45
2011-03-21 08:06:00 51°16.03 2°53.244 -999 283 5.5 103520 45
2011-03-21 08:06:05 51°16.044 2°53.23 -999 321 5.5 103520 45
2011-03-21 08:06:10 51°16.059 2°53.216 -999 283 5.5 103520 45
2011-03-21 08:06:15 51°16.073 2°53.202 -999 319 5.5 103530 46
2011-03-21 08:06:20 51°16.087 2°53.187 -999 283 5.5 103530 46
2011-03-21 08:06:25 51°16.102 2°53.173 -999 318 5.5 103520 46
2011-03-21 08:06:30 51°16.116 2°53.159 -999 283 5.5 103520 46
2011-03-21 08:06:35 51°16.131 2°53.146 -999 318 5.5 103520 45
2011-03-21 08:06:40 51°16.146 2°53.132 -999 283 5.5 103520 45
2011-03-21 08:06:45 51°16.16 2°53.12 -999 317 5.5 103530 46
2011-03-21 08:06:50 51°16.175 2°53.107 -999 283 5.5 103530 46
2011-03-21 08:06:55 51°16.19 2°53.094 -999 319 5.6 103520 45
2011-03-21 08:07:00 51°16.205 2°53.082 -999 283 5.6 103520 45
2011-03-21 08:07:05 51°16.219 2°53.069 -999 317 5.6 103520 44
2011-03-21 08:07:10 51°16.234 2°53.055 -999 283 5.6 103520 44
2011-03-21 08:07:14 51°16.246 2°53.045 -999 320 5.6 103530 45
2011-03-21 08:07:20 51°16.263 2°53.029 -999 283 5.6 103530 45
2011-03-21 08:07:25 51°16.278 2°53.016 -999 319 5.6 103520 45
2011-03-21 08:07:30 51°16.293 2°53.003 -999 283 5.6 103520 45
2011-03-21 08:07:34 51°16.304 2°52.992 -999 321 5.6 103520 45
2011-03-21 08:07:40 51°16.322 2°52.977 -999 283 5.6 103520 45
2011-03-21 08:07:45 51°16.337 2°52.965 -999 321 5.6 103520 45
2011-03-21 08:07:50 51°16.352 2°52.954 -999 283 5.6 103520 45
2011-03-21 08:07:54 51°16.364 2°52.945 -999 323 5.6 103530 45
2011-03-21 08:08:00 51°16.382 2°52.931 -999 283 5.6 103530 45
2011-03-21 08:08:05 51°16.397 2°52.919 -999 320 5.6 103530 46
2011-03-21 08:08:10 51°16.412 2°52.908 -999 283 5.6 103530 46
2011-03-21 08:08:15 51°16.427 2°52.896 -999 318 5.7 103530 46
2011-03-21 08:08:20 51°16.442 2°52.884 -999 283 5.7 103530 46
2011-03-21 08:08:25 51°16.456 2°52.871 -999 319 5.7 103530 46
2011-03-21 08:08:30 51°16.471 2°52.859 -999 283 5.7 103530 46
2011-03-21 08:08:35 51°16.486 2°52.845 -999 320 5.7 103520 46
2011-03-21 08:08:40 51°16.5 2°52.833 -999 283 5.7 103520 46
2011-03-21 08:08:45 51°16.515 2°52.82 -999 319 5.7 103520 45
2011-03-21 08:08:50 51°16.53 2°52.808 -999 283 5.7 103520 45
2011-03-21 08:08:55 51°16.546 2°52.797 -999 320 5.7 103520 45
2011-03-21 08:09:00 51°16.561 2°52.787 -999 283 5.7 103520 45
2011-03-21 08:09:05 51°16.576 2°52.776 -999 321 5.7 103520 45
2011-03-21 08:09:10 51°16.591 2°52.766 -999 283 5.7 103520 45
2011-03-21 08:09:15 51°16.607 2°52.757 -999 321 5.7 103520 45
2011-03-21 08:09:20 51°16.622 2°52.747 -999 283 5.7 103520 45
2011-03-21 08:09:25 51°16.637 2°52.738 -999 322 5.7 103530 45
2011-03-21 08:09:30 51°16.653 2°52.728 -999 283 5.7 103530 45
2011-03-21 08:09:34 51°16.665 2°52.721 -999 321 5.7 103530 45
2011-03-21 08:09:40 51°16.683 2°52.709 -999 283 5.7 103530 45
2011-03-21 08:09:45 51°16.698 2°52.699 -999 322 5.8 103530 44
2011-03-21 08:09:50 51°16.713 2°52.689 -999 283 5.8 103530 44
2011-03-21 08:09:54 51°16.725 2°52.682 -999 320 5.8 103530 45
2011-03-21 08:10:00 51°16.743 2°52.669 -999 283 5.8 103530 45
2011-03-21 08:10:05 51°16.758 2°52.659 -999 320 5.8 103530 45
2011-03-21 08:10:10 51°16.772 2°52.648 -999 283 5.8 103530 45
2011-03-21 08:10:14 51°16.783 2°52.64 -999 318 5.8 103520 45
2011-03-21 08:10:20 51°16.8 2°52.626 -999 282 5.8 103520 45
2011-03-21 08:10:25 51°16.815 2°52.614 -999 318 5.8 103530 46
2011-03-21 08:10:30 51°16.829 2°52.603 -999 283 5.8 103530 46
2011-03-21 08:10:34 51°16.84 2°52.593 -999 317 5.9 103520 46
2011-03-21 08:10:40 51°16.857 2°52.579 -999 283 5.9 103520 46
2011-03-21 08:10:45 51°16.871 2°52.567 -999 317 5.9 103520 46
2011-03-21 08:10:50 51°16.886 2°52.556 -999 283 5.9 103520 46
2011-03-21 08:10:54 51°16.897 2°52.548 -999 319 5.9 103520 46
2011-03-21 08:11:00 51°16.915 2°52.536 -999 283 5.9 103520 46
2011-03-21 08:11:05 51°16.93 2°52.527 -999 318 5.9 103530 46
2011-03-21 08:11:10 51°16.945 2°52.519 -999 283 5.9 103530 46
2011-03-21 08:11:15 51°16.96 2°52.511 -999 317 5.9 103530 46
2011-03-21 08:11:20 51°16.975 2°52.504 -999 283 5.9 103530 46
2011-03-21 08:11:25 51°16.991 2°52.497 -999 317 5.9 103530 46
2011-03-21 08:11:30 51°17.006 2°52.491 -999 283 5.9 103530 46
2011-03-21 08:11:34 51°17.018 2°52.486 -999 320 5.9 103530 45
2011-03-21 08:11:40 51°17.036 2°52.478 -999 282 5.9 103530 45
2011-03-21 08:11:45 51°17.052 2°52.471 -999 319 5.9 103530 45
2011-03-21 08:11:50 51°17.067 2°52.464 -999 283 5.9 103530 45
2011-03-21 08:11:54 51°17.079 2°52.458 -999 319 5.8 103530 45
2011-03-21 08:12:00 51°17.097 2°52.448 -999 283 5.8 103530 45
2011-03-21 08:12:05 51°17.112 2°52.44 -999 320 5.8 103530 45
2011-03-21 08:12:10 51°17.127 2°52.43 -999 283 5.8 103530 45
2011-03-21 08:12:14 51°17.139 2°52.422 -999 317 5.9 103530 45
2011-03-21 08:12:20 51°17.156 2°52.409 -999 283 5.9 103530 45
2011-03-21 08:12:25 51°17.171 2°52.398 -999 318 5.9 103530 44
2011-03-21 08:12:30 51°17.185 2°52.386 -999 283 5.9 103530 44
2011-03-21 08:12:34 51°17.197 2°52.377 -999 317 5.9 103530 45
2011-03-21 08:12:40 51°17.214 2°52.364 -999 283 5.9 103530 45
2011-03-21 08:12:45 51°17.229 2°52.353 -999 319 5.9 103530 45
2011-03-21 08:12:50 51°17.244 2°52.342 -999 283 5.9 103530 45
2011-03-21 08:12:54 51°17.256 2°52.333 -999 315 5.9 103520 45
2011-03-21 08:13:00 51°17.273 2°52.32 -999 283 5.9 103520 45
2011-03-21 08:13:05 51°17.288 2°52.31 -999 316 5.9 103520 45
2011-03-21 08:13:10 51°17.303 2°52.301 -999 283 5.9 103520 45
2011-03-21 08:13:14 51°17.315 2°52.293 -999 318 5.9 103520 45
2011-03-21 08:13:20 51°17.333 2°52.282 -999 283 5.9 103520 45
2011-03-21 08:13:25 51°17.348 2°52.273 -999 318 5.9 103530 45
2011-03-21 08:13:30 51°17.363 2°52.264 -999 283 5.9 103530 45
2011-03-21 08:13:35 51°17.378 2°52.255 -999 317 5.9 103530 45
2011-03-21 08:13:40 51°17.393 2°52.246 -999 283 5.9 103530 45
2011-03-21 08:13:45 51°17.408 2°52.236 -999 317 5.9 103530 45
2011-03-21 08:13:50 51°17.423 2°52.226 -999 283 5.9 103530 45
2011-03-21 08:13:55 51°17.438 2°52.216 -999 318 5.9 103520 45
2011-03-21 08:14:00 51°17.453 2°52.205 -999 283 5.9 103520 45
2011-03-21 08:14:05 51°17.468 2°52.194 -999 318 5.9 103520 45
2011-03-21 08:14:10 51°17.482 2°52.183 -999 283 5.9 103520 45
2011-03-21 08:14:14 51°17.494 2°52.174 -999 319 5.9 103520 45
2011-03-21 08:14:20 51°17.511 2°52.16 -999 283 5.9 103520 45
2011-03-21 08:14:25 51°17.526 2°52.15 -999 319 5.9 103520 45
2011-03-21 08:14:30 51°17.541 2°52.14 -999 283 5.9 103520 45
2011-03-21 08:14:34 51°17.553 2°52.132 -999 318 5.9 103520 45
2011-03-21 08:14:40 51°17.57 2°52.12 -999 283 5.9 103520 45
2011-03-21 08:14:45 51°17.585 2°52.111 -999 318 5.9 103520 45
2011-03-21 08:14:50 51°17.6 2°52.101 -999 283 5.9 103520 45
2011-03-21 08:14:54 51°17.612 2°52.094 -999 317 5.9 103530 45
2011-03-21 08:15:00 51°17.63 2°52.083 -999 283 5.9 103530 45
2011-03-21 08:15:05 51°17.644 2°52.074 -999 318 5.9 103530 44
2011-03-21 08:15:10 51°17.66 2°52.064 -999 283 5.9 103530 44
2011-03-21 08:15:15 51°17.674 2°52.055 -999 318 5.9 103530 45
2011-03-21 08:15:20 51°17.689 2°52.045 -999 283 5.9 103530 45
2011-03-21 08:15:25 51°17.704 2°52.035 -999 316 5.9 103520 45
2011-03-21 08:15:30 51°17.718 2°52.025 -999 283 5.9 103520 45
2011-03-21 08:15:35 51°17.733 2°52.015 -999 317 6 103530 45
2011-03-21 08:15:40 51°17.748 2°52.005 -999 283 6 103530 45
2011-03-21 08:15:45 51°17.762 2°51.995 -999 316 6 103520 45
2011-03-21 08:15:50 51°17.776 2°51.984 -999 283 6 103520 45
2011-03-21 08:15:55 51°17.79 2°51.972 -999 316 6 103530 45
2011-03-21 08:16:00 51°17.804 2°51.961 -999 283 6 103530 45
2011-03-21 08:16:05 51°17.819 2°51.95 -999 318 5.9 103530 45
2011-03-21 08:16:10 51°17.833 2°51.939 -999 283 5.9 103530 45
2011-03-21 08:16:15 51°17.848 2°51.928 -999 318 6 103530 45
2011-03-21 08:16:20 51°17.862 2°51.917 -999 283 6 103530 45
2011-03-21 08:16:25 51°17.877 2°51.907 -999 316 6 103530 45
2011-03-21 08:16:30 51°17.892 2°51.896 -999 283 6 103530 45
2011-03-21 08:16:34 51°17.904 2°51.888 -999 318 6 103520 45
2011-03-21 08:16:40 51°17.922 2°51.877 -999 283 6 103520 45
2011-03-21 08:16:45 51°17.937 2°51.868 -999 320 6 103530 45
2011-03-21 08:16:50 51°17.953 2°51.859 -999 283 6 103530 45
2011-03-21 08:16:54 51°17.965 2°51.852 -999 320 6 103530 45
2011-03-21 08:17:00 51°17.984 2°51.84 -999 283 6 103530 45
2011-03-21 08:17:05 51°17.999 2°51.83 -999 320 6 103530 45
2011-03-21 08:17:10 51°18.015 2°51.82 -999 283 6 103530 45
2011-03-21 08:17:15 51°18.03 2°51.81 -999 318 6 103530 45
2011-03-21 08:17:20 51°18.046 2°51.799 -999 283 6 103530 45
2011-03-21 08:17:25 51°18.061 2°51.788 -999 319 6 103530 45
2011-03-21 08:17:30 51°18.077 2°51.776 -999 283 6 103530 45
2011-03-21 08:17:35 51°18.092 2°51.764 -999 321 6 103530 45
2011-03-21 08:17:40 51°18.107 2°51.753 -999 283 6 103530 45
2011-03-21 08:17:45 51°18.123 2°51.741 -999 319 6 103530 44
2011-03-21 08:17:50 51°18.138 2°51.728 -999 283 6 103530 44
2011-03-21 08:17:55 51°18.153 2°51.716 -999 323 6 103530 45
2011-03-21 08:18:00 51°18.168 2°51.704 -999 283 6 103530 45
2011-03-21 08:18:05 51°18.184 2°51.693 -999 321 6 103530 45
2011-03-21 08:18:10 51°18.2 2°51.682 -999 283 6 103530 45
2011-03-21 08:18:15 51°18.216 2°51.672 -999 319 6 103530 45
2011-03-21 08:18:20 51°18.231 2°51.661 -999 282 6 103530 45
2011-03-21 08:18:25 51°18.247 2°51.65 -999 320 6.1 103530 45
2011-03-21 08:18:30 51°18.263 2°51.64 -999 283 6.1 103530 45
2011-03-21 08:18:34 51°18.276 2°51.631 -999 319 6 103530 45
2011-03-21 08:18:40 51°18.294 2°51.618 -999 282 6 103530 45
2011-03-21 08:18:45 51°18.31 2°51.607 -999 319 6 103530 45
2011-03-21 08:18:50 51°18.326 2°51.595 -999 283 6 103530 45
2011-03-21 08:18:54 51°18.339 2°51.587 -999 321 6.1 103530 45
2011-03-21 08:19:00 51°18.358 2°51.573 -999 283 6.1 103530 45
2011-03-21 08:19:05 51°18.373 2°51.562 -999 320 6.1 103530 45
2011-03-21 08:19:10 51°18.389 2°51.551 -999 283 6.1 103530 45
2011-03-21 08:19:14 51°18.402 2°51.542 -999 319 6.1 103530 46
2011-03-21 08:19:20 51°18.421 2°51.529 -999 283 6.1 103530 46
2011-03-21 08:19:25 51°18.437 2°51.518 -999 320 6.1 103530 46
2011-03-21 08:19:30 51°18.452 2°51.507 -999 283 6.1 103530 46
2011-03-21 08:19:35 51°18.468 2°51.495 -999 317 6.1 103530 46
2011-03-21 08:19:40 51°18.484 2°51.484 -999 283 6.1 103530 46
2011-03-21 08:19:45 51°18.5 2°51.472 -999 319 6.1 103530 46
2011-03-21 08:19:50 51°18.515 2°51.46 -999 283 6.1 103530 46
2011-03-21 08:19:55 51°18.531 2°51.448 -999 318 6.1 103530 45
2011-03-21 08:20:00 51°18.546 2°51.435 -999 283 6.1 103530 45
2011-03-21 08:20:05 51°18.562 2°51.422 -999 318 6.1 103530 45
2011-03-21 08:20:10 51°18.578 2°51.41 -999 283 6.1 103530 45
2011-03-21 08:20:15 51°18.593 2°51.398 -999 318 6.1 103530 45
2011-03-21 08:20:20 51°18.609 2°51.385 -999 283 6.1 103530 45
2011-03-21 08:20:25 51°18.625 2°51.373 -999 318 6.1 103530 44
2011-03-21 08:20:30 51°18.641 2°51.362 -999 283 6.1 103530 44
2011-03-21 08:20:35 51°18.657 2°51.35 -999 316 6.1 103530 45
2011-03-21 08:20:40 51°18.672 2°51.338 -999 283 6.1 103530 45
2011-03-21 08:20:45 51°18.688 2°51.326 -999 318 6.1 103530 45
2011-03-21 08:20:50 51°18.704 2°51.314 -999 283 6.1 103530 45
2011-03-21 08:20:54 51°18.717 2°51.304 -999 320 6.1 103530 45
2011-03-21 08:21:00 51°18.735 2°51.289 -999 283 6.1 103530 45
2011-03-21 08:21:05 51°18.751 2°51.277 -999 319 6.1 103530 45
2011-03-21 08:21:10 51°18.767 2°51.265 -999 283 6.1 103530 45
2011-03-21 08:21:14 51°18.78 2°51.256 -999 318 6.1 103530 45
2011-03-21 08:21:20 51°18.799 2°51.241 -999 283 6.1 103530 45
2011-03-21 08:21:25 51°18.814 2°51.229 -999 319 6.1 103530 45
2011-03-21 08:21:30 51°18.83 2°51.217 -999 283 6.1 103530 45
2011-03-21 08:21:34 51°18.842 2°51.207 -999 319 6.1 103530 45
2011-03-21 08:21:40 51°18.861 2°51.193 -999 283 6.1 103530 45
2011-03-21 08:21:45 51°18.877 2°51.18 -999 318 6.1 103530 45
2011-03-21 08:21:50 51°18.893 2°51.168 -999 283 6.1 103530 45
2011-03-21 08:21:55 51°18.908 2°51.155 -999 315 6.1 103530 45
2011-03-21 08:22:00 51°18.924 2°51.142 -999 283 6.1 103530 45
2011-03-21 08:22:05 51°18.939 2°51.128 -999 318 6.1 103530 45
2011-03-21 08:22:10 51°18.954 2°51.115 -999 283 6.1 103530 45
2011-03-21 08:22:15 51°18.969 2°51.102 -999 316 6.2 103530 45
2011-03-21 08:22:20 51°18.985 2°51.089 -999 283 6.2 103530 45
2011-03-21 08:22:25 51°19 2°51.076 -999 318 6.1 103530 45
2011-03-21 08:22:30 51°19.016 2°51.064 -999 283 6.1 103530 45
2011-03-21 08:22:35 51°19.032 2°51.051 -999 316 6.1 103530 45
2011-03-21 08:22:40 51°19.047 2°51.039 -999 278 6.1 103530 45
2011-03-21 08:22:45 51°19.063 2°51.027 -999 319 6.1 103530 45
2011-03-21 08:22:50 51°19.078 2°51.015 -999 283 6.1 103530 45
2011-03-21 08:22:55 51°19.094 2°51.002 -999 316 6.1 103530 45
2011-03-21 08:23:00 51°19.109 2°50.99 -999 283 6.1 103530 45
2011-03-21 08:23:05 51°19.125 2°50.977 -999 316 6.2 103530 44
2011-03-21 08:23:10 51°19.14 2°50.964 -999 283 6.2 103530 44
2011-03-21 08:23:14 51°19.152 2°50.954 -999 317 6.1 103530 45
2011-03-21 08:23:20 51°19.171 2°50.938 -999 283 6.1 103530 45
2011-03-21 08:23:25 51°19.186 2°50.925 -999 318 6.1 103530 45
2011-03-21 08:23:30 51°19.202 2°50.912 -999 283 6.1 103530 45
2011-03-21 08:23:34 51°19.214 2°50.901 -999 318 6.2 103530 45
2011-03-21 08:23:40 51°19.233 2°50.886 -999 283 6.2 103530 45
2011-03-21 08:23:45 51°19.248 2°50.874 -999 318 6.1 103530 45
2011-03-21 08:23:50 51°19.264 2°50.861 -999 283 6.1 103530 45
2011-03-21 08:23:55 51°19.28 2°50.849 -999 318 6.2 103530 46
2011-03-21 08:24:00 51°19.295 2°50.836 -999 283 6.2 103530 46
2011-03-21 08:24:05 51°19.31 2°50.823 -999 317 6.2 103530 46
2011-03-21 08:24:10 51°19.326 2°50.81 -999 283 6.2 103530 46
2011-03-21 08:24:15 51°19.341 2°50.797 -999 317 6.2 103530 46
2011-03-21 08:24:20 51°19.356 2°50.784 -999 283 6.2 103530 46
2011-03-21 08:24:25 51°19.372 2°50.771 -999 318 6.2 103530 46
2011-03-21 08:24:30 51°19.387 2°50.758 -999 283 6.2 103530 46
2011-03-21 08:24:35 51°19.403 2°50.745 -999 318 6.2 103530 46
2011-03-21 08:24:40 51°19.419 2°50.733 -999 283 6.2 103530 46
2011-03-21 08:24:45 51°19.434 2°50.721 -999 318 6.2 103530 46
2011-03-21 08:24:50 51°19.45 2°50.709 -999 283 6.2 103530 46
2011-03-21 08:24:55 51°19.466 2°50.698 -999 318 6.2 103530 46
2011-03-21 08:25:00 51°19.481 2°50.686 -999 283 6.2 103530 46
2011-03-21 08:25:05 51°19.497 2°50.675 -999 318 6.2 103530 46
2011-03-21 08:25:10 51°19.512 2°50.663 -999 283 6.2 103530 46
2011-03-21 08:25:14 51°19.525 2°50.653 -999 321 6.2 103530 46
2011-03-21 08:25:20 51°19.544 2°50.639 -999 283 6.2 103530 46
2011-03-21 08:25:25 51°19.56 2°50.627 -999 316 6.2 103530 46
2011-03-21 08:25:30 51°19.576 2°50.615 0.1 283 6.2 103530 46
2011-03-21 08:25:34 51°19.588 2°50.605 0.1 317 6.2 103530 46
2011-03-21 08:25:40 51°19.606 2°50.59 0.1 283 6.2 103530 46
2011-03-21 08:25:45 51°19.623 2°50.579 -999 318 6.2 103530 45
2011-03-21 08:25:50 51°19.638 2°50.567 -999 283 6.2 103530 45
2011-03-21 08:25:54 51°19.651 2°50.558 -999 317 6.2 103530 46
2011-03-21 08:26:00 51°19.671 2°50.545 -999 283 6.2 103530 46
2011-03-21 08:26:05 51°19.686 2°50.533 -999 317 6.2 103530 46
2011-03-21 08:26:10 51°19.702 2°50.521 -999 283 6.2 103530 46
2011-03-21 08:26:14 51°19.715 2°50.512 -999 319 6.2 103530 46
2011-03-21 08:26:20 51°19.734 2°50.497 -999 283 6.2 103530 46
2011-03-21 08:26:25 51°19.749 2°50.484 -999 320 6.2 103530 46
2011-03-21 08:26:30 51°19.765 2°50.471 -999 283 6.2 103530 46
2011-03-21 08:26:34 51°19.778 2°50.461 -999 320 6.2 103530 46
2011-03-21 08:26:40 51°19.797 2°50.447 -999 283 6.2 103530 46
2011-03-21 08:26:45 51°19.813 2°50.435 -999 318 6.2 103530 46
2011-03-21 08:26:50 51°19.83 2°50.423 -999 282 6.2 103530 46
2011-03-21 08:26:54 51°19.842 2°50.414 -999 320 6.2 103530 46
2011-03-21 08:27:00 51°19.862 2°50.4 -999 283 6.2 103530 46
2011-03-21 08:27:05 51°19.878 2°50.388 -999 319 6.2 103530 46
2011-03-21 08:27:10 51°19.894 2°50.376 -999 283 6.2 103530 46
2011-03-21 08:27:15 51°19.91 2°50.363 -999 319 6.2 103530 46
2011-03-21 08:27:20 51°19.926 2°50.35 -999 283 6.2 103530 46
2011-03-21 08:27:25 51°19.942 2°50.338 -999 317 6.3 103530 46
2011-03-21 08:27:30 51°19.958 2°50.325 -999 283 6.3 103530 46
2011-03-21 08:27:34 51°19.97 2°50.315 -999 319 6.2 103530 46
2011-03-21 08:27:40 51°19.989 2°50.3 -999 283 6.2 103530 46
2011-03-21 08:27:45 51°20.005 2°50.287 -999 319 6.2 103530 46
2011-03-21 08:27:50 51°20.021 2°50.274 -999 283 6.2 103530 46
2011-03-21 08:27:54 51°20.034 2°50.264 -999 319 6.3 103530 46
2011-03-21 08:28:00 51°20.053 2°50.249 -999 283 6.3 103530 46
2011-03-21 08:28:05 51°20.069 2°50.236 -999 318 6.2 103530 46
2011-03-21 08:28:10 51°20.085 2°50.224 -999 283 6.2 103530 46
2011-03-21 08:28:14 51°20.098 2°50.214 -999 320 6.3 103540 46
2011-03-21 08:28:20 51°20.117 2°50.199 -999 283 6.3 103540 46
2011-03-21 08:28:25 51°20.133 2°50.186 -999 319 6.3 103540 45
2011-03-21 08:28:30 51°20.149 2°50.173 -999 283 6.3 103540 45
2011-03-21 08:28:34 51°20.162 2°50.162 -999 317 6.3 103530 46
2011-03-21 08:28:40 51°20.181 2°50.147 -999 283 6.3 103530 46
2011-03-21 08:28:45 51°20.197 2°50.134 -999 322 6.3 103530 47
2011-03-21 08:28:50 51°20.213 2°50.121 -999 283 6.3 103530 47
2011-03-21 08:28:55 51°20.229 2°50.108 -999 320 6.3 103530 47
2011-03-21 08:29:00 51°20.245 2°50.095 -999 283 6.3 103530 47
2011-03-21 08:29:05 51°20.261 2°50.082 -999 319 6.3 103530 46
2011-03-21 08:29:10 51°20.277 2°50.069 -999 283 6.3 103530 46
2011-03-21 08:29:15 51°20.293 2°50.055 -999 319 6.3 103540 47
2011-03-21 08:29:20 51°20.309 2°50.042 -999 283 6.3 103540 47
2011-03-21 08:29:25 51°20.325 2°50.029 -999 321 6.4 103540 47
2011-03-21 08:29:30 51°20.341 2°50.016 -999 283 6.4 103540 47
2011-03-21 08:29:34 51°20.354 2°50.006 -999 320 6.4 103540 47
2011-03-21 08:29:40 51°20.374 2°49.991 -999 283 6.4 103540 47
2011-03-21 08:29:45 51°20.39 2°49.979 -999 322 6.4 103530 47
2011-03-21 08:29:50 51°20.406 2°49.967 -999 283 6.4 103530 47
2011-03-21 08:29:54 51°20.419 2°49.957 -999 321 6.4 103530 47
2011-03-21 08:30:00 51°20.439 2°49.943 -999 283 6.4 103530 47
2011-03-21 08:30:05 51°20.455 2°49.932 -999 320 6.4 103540 47
2011-03-21 08:30:10 51°20.472 2°49.92 -999 283 6.4 103540 47
2011-03-21 08:30:14 51°20.485 2°49.911 -999 320 6.4 103530 47
2011-03-21 08:30:20 51°20.505 2°49.897 -999 283 6.4 103530 47
2011-03-21 08:30:25 51°20.521 2°49.886 -999 318 6.4 103540 46
2011-03-21 08:30:30 51°20.538 2°49.875 -999 283 6.4 103540 46
2011-03-21 08:30:34 51°20.551 2°49.865 -999 319 6.4 103540 47
2011-03-21 08:30:40 51°20.571 2°49.851 -999 283 6.4 103540 47
2011-03-21 08:30:45 51°20.587 2°49.839 -999 321 6.4 103540 47
2011-03-21 08:30:50 51°20.604 2°49.827 -999 283 6.4 103540 47
2011-03-21 08:30:55 51°20.62 2°49.815 -999 319 6.4 103540 47
2011-03-21 08:31:00 51°20.637 2°49.803 -999 283 6.4 103540 47
2011-03-21 08:31:05 51°20.654 2°49.791 -999 319 6.4 103540 46
2011-03-21 08:31:10 51°20.67 2°49.78 -999 283 6.4 103540 46
2011-03-21 08:31:15 51°20.687 2°49.768 -999 318 6.4 103540 47
2011-03-21 08:31:20 51°20.703 2°49.756 -999 283 6.4 103540 47
2011-03-21 08:31:25 51°20.719 2°49.744 -999 319 6.4 103540 47
2011-03-21 08:31:30 51°20.736 2°49.731 -999 283 6.4 103540 47
2011-03-21 08:31:35 51°20.752 2°49.719 -999 321 6.4 103540 47
2011-03-21 08:31:40 51°20.769 2°49.708 -999 283 6.4 103540 47
2011-03-21 08:31:45 51°20.786 2°49.697 -999 320 6.4 103540 47
2011-03-21 08:31:50 51°20.802 2°49.685 -999 283 6.4 103540 47
2011-03-21 08:31:54 51°20.815 2°49.675 -999 320 6.4 103540 47
2011-03-21 08:32:00 51°20.835 2°49.662 -999 283 6.4 103540 47
2011-03-21 08:32:05 51°20.852 2°49.651 -999 321 6.4 103540 47
2011-03-21 08:32:10 51°20.869 2°49.639 -999 283 6.4 103540 47
2011-03-21 08:32:14 51°20.882 2°49.63 -999 321 6.4 103540 47
2011-03-21 08:32:20 51°20.902 2°49.616 -999 283 6.4 103540 47
2011-03-21 08:32:25 51°20.918 2°49.604 -999 320 6.4 103540 47
2011-03-21 08:32:30 51°20.935 2°49.592 -999 282 6.4 103540 47
2011-03-21 08:32:34 51°20.948 2°49.583 -999 323 6.4 103540 47
2011-03-21 08:32:40 51°20.968 2°49.568 -999 283 6.4 103540 47
2011-03-21 08:32:45 51°20.984 2°49.555 -999 320 6.4 103540 47
2011-03-21 08:32:50 51°21.001 2°49.543 -999 283 6.4 103540 47
2011-03-21 08:32:55 51°21.017 2°49.531 -999 321 6.4 103540 47
2011-03-21 08:33:00 51°21.034 2°49.519 -999 283 6.4 103540 47
2011-03-21 08:33:05 51°21.05 2°49.508 -999 321 6.4 103540 47
2011-03-21 08:33:10 51°21.067 2°49.496 -999 283 6.4 103540 47
2011-03-21 08:33:15 51°21.083 2°49.485 -999 320 6.4 103540 47
2011-03-21 08:33:20 51°21.1 2°49.473 -999 283 6.4 103540 47
2011-03-21 08:33:25 51°21.117 2°49.462 -999 319 6.4 103540 47
2011-03-21 08:33:30 51°21.133 2°49.45 -999 283 6.4 103540 47
2011-03-21 08:33:34 51°21.146 2°49.441 -999 322 6.4 103540 47
2011-03-21 08:33:40 51°21.166 2°49.427 -999 283 6.4 103540 47
2011-03-21 08:33:45 51°21.183 2°49.415 -999 320 6.4 103540 46
2011-03-21 08:33:50 51°21.2 2°49.404 -999 282 6.4 103540 46
2011-03-21 08:33:54 51°21.213 2°49.394 -999 320 6.4 103540 47
2011-03-21 08:34:00 51°21.233 2°49.38 -999 283 6.4 103540 47
2011-03-21 08:34:05 51°21.249 2°49.369 -999 320 6.4 103540 47
2011-03-21 08:34:10 51°21.266 2°49.357 -999 283 6.4 103540 47
2011-03-21 08:34:14 51°21.279 2°49.348 -999 321 6.4 103540 47
2011-03-21 08:34:20 51°21.299 2°49.334 -999 283 6.4 103540 47
2011-03-21 08:34:25 51°21.316 2°49.322 -999 323 6.4 103540 47
2011-03-21 08:34:30 51°21.333 2°49.311 -999 282 6.4 103540 47
2011-03-21 08:34:34 51°21.346 2°49.302 -999 323 6.5 103540 47
2011-03-21 08:34:40 51°21.366 2°49.289 -999 283 6.5 103540 47
2011-03-21 08:34:45 51°21.383 2°49.278 -999 323 6.5 103540 47
2011-03-21 08:34:50 51°21.399 2°49.266 -999 283 6.5 103540 47
2011-03-21 08:34:54 51°21.413 2°49.257 -999 321 6.5 103540 47
2011-03-21 08:35:00 51°21.432 2°49.243 -999 283 6.5 103540 47
2011-03-21 08:35:05 51°21.449 2°49.231 -999 324 6.5 103540 47
2011-03-21 08:35:10 51°21.465 2°49.219 -999 282 6.5 103540 47
2011-03-21 08:35:15 51°21.482 2°49.207 -999 321 6.5 103540 47
2011-03-21 08:35:20 51°21.498 2°49.196 -999 282 6.5 103540 47
2011-03-21 08:35:25 51°21.515 2°49.185 -999 321 6.5 103540 47
2011-03-21 08:35:30 51°21.532 2°49.174 -999 282 6.5 103540 47
2011-03-21 08:35:35 51°21.549 2°49.163 -999 320 6.5 103540 47
2011-03-21 08:35:40 51°21.566 2°49.152 -999 283 6.5 103540 47
2011-03-21 08:35:45 51°21.582 2°49.141 -999 323 6.5 103540 47
2011-03-21 08:35:50 51°21.599 2°49.13 -999 282 6.5 103540 47
2011-03-21 08:35:55 51°21.616 2°49.118 -999 322 6.5 103540 47
2011-03-21 08:36:00 51°21.632 2°49.107 -999 282 6.5 103540 47
2011-03-21 08:36:05 51°21.649 2°49.095 -999 322 6.5 103540 47
2011-03-21 08:36:10 51°21.666 2°49.083 -999 282 6.5 103540 47
2011-03-21 08:36:15 51°21.682 2°49.071 -999 321 6.5 103540 47
2011-03-21 08:36:20 51°21.699 2°49.059 -999 283 6.5 103540 47
2011-03-21 08:36:25 51°21.716 2°49.048 -999 322 6.5 103540 46
2011-03-21 08:36:30 51°21.732 2°49.036 -999 282 6.5 103540 46
2011-03-21 08:36:34 51°21.746 2°49.027 -999 322 6.5 103540 47
2011-03-21 08:36:40 51°21.766 2°49.013 -999 282 6.5 103540 47
2011-03-21 08:36:45 51°21.783 2°49.002 -999 321 6.5 103540 47
2011-03-21 08:36:50 51°21.799 2°48.991 -999 282 6.5 103540 47
2011-03-21 08:36:54 51°21.813 2°48.982 -999 324 6.5 103540 47
2011-03-21 08:37:00 51°21.833 2°48.968 -999 282 6.5 103540 47
2011-03-21 08:37:05 51°21.85 2°48.956 -999 322 6.5 103540 47
2011-03-21 08:37:10 51°21.866 2°48.944 -999 283 6.5 103540 47
2011-03-21 08:37:14 51°21.88 2°48.935 -999 322 6.5 103540 47
2011-03-21 08:37:20 51°21.9 2°48.921 -999 283 6.5 103540 47
2011-03-21 08:37:25 51°21.917 2°48.91 -999 323 6.5 103540 48
2011-03-21 08:37:30 51°21.934 2°48.899 -999 283 6.5 103540 48
2011-03-21 08:37:34 51°21.947 2°48.89 -999 324 6.5 103540 48
2011-03-21 08:37:40 51°21.967 2°48.877 -999 283 6.5 103540 48
2011-03-21 08:37:45 51°21.984 2°48.865 -999 323 6.5 103540 48
2011-03-21 08:37:50 51°22.001 2°48.854 -999 283 6.5 103540 48
2011-03-21 08:37:54 51°22.014 2°48.845 -999 323 6.5 103540 47
2011-03-21 08:38:00 51°22.035 2°48.831 -999 283 6.5 103540 47
2011-03-21 08:38:05 51°22.052 2°48.819 -999 321 6.5 103540 48
2011-03-21 08:38:10 51°22.068 2°48.807 -999 283 6.5 103540 48
2011-03-21 08:38:15 51°22.085 2°48.795 -999 320 6.5 103540 48
2011-03-21 08:38:20 51°22.102 2°48.783 -999 283 6.5 103540 48
2011-03-21 08:38:25 51°22.119 2°48.772 -999 322 6.5 103540 48
2011-03-21 08:38:30 51°22.136 2°48.76 -999 283 6.5 103540 48
2011-03-21 08:38:34 51°22.15 2°48.752 -999 321 6.5 103540 47
2011-03-21 08:38:40 51°22.17 2°48.74 -999 282 6.5 103540 47
2011-03-21 08:38:45 51°22.188 2°48.732 -999 322 6.5 103550 48
2011-03-21 08:38:50 51°22.205 2°48.725 -999 283 6.5 103550 48
2011-03-21 08:38:54 51°22.219 2°48.721 -999 324 6.5 103540 48
2011-03-21 08:39:00 51°22.24 2°48.714 -999 282 6.5 103540 48
2011-03-21 08:39:05 51°22.258 2°48.709 -999 326 6.5 103540 46
2011-03-21 08:39:10 51°22.275 2°48.705 -999 282 6.5 103540 46
2011-03-21 08:39:14 51°22.289 2°48.702 -999 329 6.6 103540 47
2011-03-21 08:39:20 51°22.31 2°48.701 -999 282 6.6 103540 47
2011-03-21 08:39:25 51°22.327 2°48.699 -999 330 6.6 103540 47
2011-03-21 08:39:30 51°22.344 2°48.699 -999 283 6.6 103540 47
2011-03-21 08:39:34 51°22.357 2°48.699 -999 329 6.6 103540 47
2011-03-21 08:39:40 51°22.377 2°48.698 -999 282 6.6 103540 47
2011-03-21 08:39:45 51°22.394 2°48.697 -999 330 6.6 103550 48
2011-03-21 08:39:50 51°22.411 2°48.696 -999 283 6.6 103550 48
2011-03-21 08:39:54 51°22.424 2°48.695 -999 332 6.6 103540 48
2011-03-21 08:40:00 51°22.444 2°48.695 -999 283 6.6 103540 48
2011-03-21 08:40:05 51°22.46 2°48.695 -999 332 6.6 103540 48
2011-03-21 08:40:10 51°22.477 2°48.695 -999 282 6.6 103540 48
2011-03-21 08:40:15 51°22.494 2°48.695 -999 331 6.6 103540 47
2011-03-21 08:40:20 51°22.51 2°48.694 -999 282 6.6 103540 47
2011-03-21 08:40:25 51°22.527 2°48.694 -999 331 6.6 103540 48
2011-03-21 08:40:30 51°22.543 2°48.693 -999 283 6.6 103540 48
2011-03-21 08:40:35 51°22.56 2°48.692 -999 330 6.6 103550 48
2011-03-21 08:40:40 51°22.576 2°48.691 -999 283 6.6 103550 48
2011-03-21 08:40:45 51°22.593 2°48.69 -999 328 6.5 103540 48
2011-03-21 08:40:50 51°22.609 2°48.688 -999 282 6.5 103540 48
2011-03-21 08:40:54 51°22.622 2°48.687 -999 330 6.6 103540 47
2011-03-21 08:41:00 51°22.642 2°48.686 -999 283 6.6 103540 47
2011-03-21 08:41:05 51°22.658 2°48.684 -999 330 6.6 103540 48
2011-03-21 08:41:10 51°22.674 2°48.684 -999 283 6.6 103540 48
2011-03-21 08:41:14 51°22.687 2°48.683 -999 329 6.6 103540 48
2011-03-21 08:41:20 51°22.707 2°48.682 -999 283 6.6 103540 48
2011-03-21 08:41:25 51°22.723 2°48.68 -999 329 6.6 103550 48
2011-03-21 08:41:30 51°22.739 2°48.679 -999 283 6.6 103550 48
2011-03-21 08:41:34 51°22.752 2°48.678 -999 328 6.6 103540 48
2011-03-21 08:41:40 51°22.772 2°48.675 -999 283 6.6 103540 48
2011-03-21 08:41:45 51°22.788 2°48.673 -999 330 6.6 103540 47
2011-03-21 08:41:50 51°22.804 2°48.671 -999 283 6.6 103540 47
2011-03-21 08:41:54 51°22.817 2°48.669 -999 327 6.6 103540 48
2011-03-21 08:42:00 51°22.837 2°48.666 -999 283 6.6 103540 48
2011-03-21 08:42:05 51°22.853 2°48.665 -999 328 6.6 103540 48
2011-03-21 08:42:10 51°22.869 2°48.663 -999 282 6.6 103540 48
2011-03-21 08:42:14 51°22.882 2°48.662 -999 329 6.6 103540 47
2011-03-21 08:42:20 51°22.902 2°48.66 -999 282 6.6 103540 47
2011-03-21 08:42:25 51°22.918 2°48.659 -999 328 6.6 103540 48
2011-03-21 08:42:30 51°22.934 2°48.657 -999 283 6.6 103540 48
2011-03-21 08:42:34 51°22.947 2°48.656 -999 329 6.6 103540 48
2011-03-21 08:42:40 51°22.967 2°48.654 -999 282 6.6 103540 48
2011-03-21 08:42:45 51°22.983 2°48.652 -999 330 6.6 103540 48
2011-03-21 08:42:50 51°22.999 2°48.65 -999 282 6.6 103540 48
2011-03-21 08:42:55 51°23.016 2°48.648 -999 329 6.6 103540 47
2011-03-21 08:43:00 51°23.032 2°48.647 -999 283 6.6 103540 47
2011-03-21 08:43:05 51°23.048 2°48.645 -999 327 6.6 103540 48
2011-03-21 08:43:10 51°23.064 2°48.643 -999 283 6.6 103540 48
2011-03-21 08:43:14 51°23.078 2°48.641 -999 328 6.6 103540 48
2011-03-21 08:43:20 51°23.097 2°48.639 -999 282 6.6 103540 48
2011-03-21 08:43:25 51°23.114 2°48.637 -999 330 6.6 103540 47
2011-03-21 08:43:30 51°23.13 2°48.635 -999 282 6.6 103540 47
2011-03-21 08:43:34 51°23.143 2°48.634 -999 327 6.6 103540 48
2011-03-21 08:43:40 51°23.162 2°48.628 -999 282 6.6 103540 48
2011-03-21 08:43:45 51°23.178 2°48.62 -999 324 6.6 103540 48
2011-03-21 08:43:50 51°23.194 2°48.611 -999 283 6.6 103540 48
2011-03-21 08:43:54 51°23.207 2°48.602 -999 318 6.6 103540 48
2011-03-21 08:44:00 51°23.225 2°48.589 -999 283 6.6 103540 48
2011-03-21 08:44:05 51°23.241 2°48.576 -999 319 6.6 103540 48
2011-03-21 08:44:10 51°23.256 2°48.563 -999 283 6.6 103540 48
2011-03-21 08:44:14 51°23.268 2°48.553 -999 317 6.6 103540 47
2011-03-21 08:44:20 51°23.287 2°48.538 -999 282 6.6 103540 47
2011-03-21 08:44:24 51°23.3 2°48.528 -999 318 6.6 103530 47
2011-03-21 08:44:30 51°23.319 2°48.513 -999 283 6.6 103530 47
2011-03-21 08:44:34 51°23.331 2°48.504 -999 320 6.6 103540 48
2011-03-21 08:44:40 51°23.35 2°48.49 2.1 283 6.6 103540 48
2011-03-21 08:44:45 51°23.366 2°48.479 2.2 318 6.6 103530 47
2011-03-21 08:44:50 51°23.382 2°48.468 0.3 283 6.6 103530 47
2011-03-21 08:44:55 51°23.398 2°48.455 0.1 318 6.6 103530 47
2011-03-21 08:45:00 51°23.414 2°48.443 0.1 283 6.6 103530 47
2011-03-21 08:45:05 51°23.429 2°48.43 -999 320 6.6 103540 48
2011-03-21 08:45:10 51°23.445 2°48.416 -999 283 6.6 103540 48
2011-03-21 08:45:15 51°23.46 2°48.401 -999 318 6.6 103530 47
2011-03-21 08:45:20 51°23.475 2°48.387 -999 283 6.6 103530 47
2011-03-21 08:45:25 51°23.491 2°48.372 -999 316 6.6 103530 48
2011-03-21 08:45:30 51°23.506 2°48.356 -999 283 6.6 103530 48
2011-03-21 08:45:34 51°23.518 2°48.344 -999 316 6.6 103530 48
2011-03-21 08:45:40 51°23.536 2°48.326 -999 283 6.6 103530 48
2011-03-21 08:45:45 51°23.551 2°48.311 -999 318 6.6 103530 48
2011-03-21 08:45:50 51°23.567 2°48.296 -999 283 6.6 103530 48
2011-03-21 08:45:54 51°23.579 2°48.285 0.1 317 6.6 103530 48
2011-03-21 08:46:00 51°23.597 2°48.267 0.1 283 6.6 103530 48
2011-03-21 08:46:05 51°23.613 2°48.253 -999 315 6.6 103530 48
2011-03-21 08:46:10 51°23.628 2°48.239 -999 283 6.6 103530 48
2011-03-21 08:46:14 51°23.64 2°48.227 -999 23 6.6 103530 47
2011-03-21 08:46:20 51°23.658 2°48.209 -999 282 6.6 103530 47
2011-03-21 08:46:25 51°23.673 2°48.195 -999 23 6.6 103530 47
2011-03-21 08:46:30 51°23.688 2°48.18 -999 283 6.6 103530 47
2011-03-21 08:46:35 51°23.703 2°48.165 -999 315 6.6 103530 47
2011-03-21 08:46:40 51°23.718 2°48.15 -999 283 6.6 103530 47
2011-03-21 08:46:45 51°23.733 2°48.136 -999 318 6.6 103530 47
2011-03-21 08:46:50 51°23.748 2°48.121 -999 283 6.6 103530 47
2011-03-21 08:46:55 51°23.763 2°48.106 -999 318 6.6 103530 47
2011-03-21 08:47:00 51°23.778 2°48.09 -999 282 6.6 103530 47
2011-03-21 08:47:05 51°23.792 2°48.073 -999 23 6.6 103530 46
2011-03-21 08:47:10 51°23.806 2°48.057 -999 283 6.6 103530 46
2011-03-21 08:47:15 51°23.82 2°48.039 -999 315 6.6 103530 47
2011-03-21 08:47:20 51°23.835 2°48.023 -999 283 6.6 103530 47
2011-03-21 08:47:25 51°23.849 2°48.006 -999 316 6.6 103530 47
2011-03-21 08:47:30 51°23.864 2°47.99 -999 283 6.6 103530 47
2011-03-21 08:47:34 51°23.875 2°47.977 -999 315 6.6 103530 47
2011-03-21 08:47:40 51°23.892 2°47.958 -999 278 6.6 103530 47
2011-03-21 08:47:45 51°23.907 2°47.942 -999 24 6.6 103520 47
2011-03-21 08:47:50 51°23.921 2°47.925 -999 283 6.6 103520 47
2011-03-21 08:47:54 51°23.933 2°47.912 -999 315 6.6 103530 47
2011-03-21 08:48:00 51°23.95 2°47.892 1.8 309 6.6 103530 47
2011-03-21 08:48:05 51°23.964 2°47.875 0.9 316 6.6 103520 47
2011-03-21 08:48:10 51°23.978 2°47.858 0.6 309 6.6 103520 47
2011-03-21 08:48:14 51°23.989 2°47.845 0.4 20 6.6 103530 47
2011-03-21 08:48:20 51°24.007 2°47.825 0.1 306 6.6 103530 47
2011-03-21 08:48:25 51°24.021 2°47.808 0.1 23 6.6 103520 47
2011-03-21 08:48:30 51°24.035 2°47.792 -999 306 6.6 103520 47
2011-03-21 08:48:34 51°24.047 2°47.778 -999 23 6.6 103530 47
2011-03-21 08:48:40 51°24.064 2°47.759 -999 306 6.6 103530 47
2011-03-21 08:48:45 51°24.078 2°47.742 0.1 23 6.6 103520 47
2011-03-21 08:48:50 51°24.093 2°47.726 0.1 301 6.6 103520 47
2011-03-21 08:48:55 51°24.107 2°47.71 0.1 22 6.5 103520 47
2011-03-21 08:49:00 51°24.122 2°47.694 0.1 306 6.5 103520 47
2011-03-21 08:49:05 51°24.137 2°47.678 0.1 316 6.5 103520 47
2011-03-21 08:49:10 51°24.151 2°47.662 -999 306 6.5 103520 47
2011-03-21 08:49:15 51°24.166 2°47.646 -999 317 6.5 103520 46
2011-03-21 08:49:20 51°24.18 2°47.63 0.1 282 6.5 103520 46
2011-03-21 08:49:25 51°24.195 2°47.613 0.1 26 6.5 103520 47
2011-03-21 08:49:30 51°24.209 2°47.597 0.1 306 6.5 103520 47
2011-03-21 08:49:35 51°24.223 2°47.58 0.1 315 6.5 103520 47
2011-03-21 08:49:40 51°24.238 2°47.564 -999 306 6.5 103520 47
2011-03-21 08:49:45 51°24.252 2°47.548 -999 23 6.5 103520 46
2011-03-21 08:49:50 51°24.267 2°47.531 -999 306 6.5 103520 46
2011-03-21 08:49:55 51°24.281 2°47.515 -999 23 6.5 103520 47
2011-03-21 08:50:00 51°24.295 2°47.498 -999 306 6.5 103520 47
2011-03-21 08:50:05 51°24.31 2°47.481 0.1 21 6.5 103520 47
2011-03-21 08:50:10 51°24.324 2°47.464 0.1 306 6.5 103520 47
2011-03-21 08:50:14 51°24.336 2°47.451 0.1 23 6.5 103520 48
2011-03-21 08:50:20 51°24.353 2°47.43 -999 306 6.5 103520 48
2011-03-21 08:50:25 51°24.367 2°47.413 0.1 20 6.5 103520 47
2011-03-21 08:50:30 51°24.381 2°47.396 0.1 306 6.5 103520 47
2011-03-21 08:50:34 51°24.392 2°47.382 0.1 23 6.5 103520 48
2011-03-21 08:50:40 51°24.41 2°47.363 -999 306 6.5 103520 48
2011-03-21 08:50:45 51°24.424 2°47.346 0.1 23 6.5 103520 47
2011-03-21 08:50:50 51°24.439 2°47.329 0.1 306 6.5 103520 47
2011-03-21 08:50:54 51°24.45 2°47.316 0.1 23 6.5 103520 48
2011-03-21 08:51:00 51°24.468 2°47.295 0.8 308 6.5 103520 48
2011-03-21 08:51:05 51°24.482 2°47.278 0.3 28 6.5 103520 47
2011-03-21 08:51:10 51°24.496 2°47.261 0.5 309 6.5 103520 47
2011-03-21 08:51:15 51°24.511 2°47.243 0.4 20 6.5 103520 47
2011-03-21 08:51:20 51°24.525 2°47.225 0.1 283 6.5 103520 47
2011-03-21 08:51:25 51°24.539 2°47.207 0.9 25 6.5 103520 47
2011-03-21 08:51:30 51°24.553 2°47.189 0.6 308 6.5 103520 47
2011-03-21 08:51:35 51°24.567 2°47.171 0.3 20 6.5 103520 48
2011-03-21 08:51:40 51°24.582 2°47.154 1.1 301 6.5 103520 48
2011-03-21 08:51:45 51°24.596 2°47.136 0.4 20 6.5 103520 48
2011-03-21 08:51:50 51°24.611 2°47.119 0.1 306 6.5 103520 48
2011-03-21 08:51:54 51°24.623 2°47.106 0.1 23 6.5 103520 47
2011-03-21 08:52:00 51°24.64 2°47.085 -999 306 6.5 103520 47
2011-03-21 08:52:05 51°24.654 2°47.067 0.1 28 6.5 103520 48
2011-03-21 08:52:10 51°24.669 2°47.05 0.9 305 6.5 103520 48
2011-03-21 08:52:14 51°24.68 2°47.036 0.4 21 6.5 103520 48
2011-03-21 08:52:20 51°24.698 2°47.014 0.7 309 6.5 103520 48
2011-03-21 08:52:25 51°24.712 2°46.996 0.3 22 6.5 103510 47
2011-03-21 08:52:30 51°24.726 2°46.978 0.1 306 6.5 103510 47
2011-03-21 08:52:34 51°24.738 2°46.964 0.9 28 6.5 103520 47
2011-03-21 08:52:40 51°24.755 2°46.942 0.8 309 6.5 103520 47
2011-03-21 08:52:45 51°24.769 2°46.925 0.2 27 6.5 103520 48
2011-03-21 08:52:50 51°24.784 2°46.907 0.1 306 6.5 103520 48
2011-03-21 08:52:54 51°24.795 2°46.893 0.1 20 6.5 103520 48
2011-03-21 08:53:00 51°24.813 2°46.872 0.1 306 6.5 103520 48
2011-03-21 08:53:05 51°24.827 2°46.854 0.1 23 6.5 103520 48
2011-03-21 08:53:10 51°24.842 2°46.837 -999 306 6.5 103520 48
2011-03-21 08:53:15 51°24.856 2°46.82 -999 23 6.5 103520 48
2011-03-21 08:53:20 51°24.87 2°46.802 -999 282 6.5 103520 48
2011-03-21 08:53:25 51°24.885 2°46.785 0.7 20 6.4 103520 48
2011-03-21 08:53:30 51°24.9 2°46.768 1.6 307 6.4 103520 48
2011-03-21 08:53:35 51°24.914 2°46.75 1.7 27 6.5 103520 48
2011-03-21 08:53:40 51°24.928 2°46.733 3.7 304 6.5 103520 48
2011-03-21 08:53:45 51°24.942 2°46.715 3.1 22 6.5 103510 48
2011-03-21 08:53:50 51°24.957 2°46.698 3.8 305 6.5 103510 48
2011-03-21 08:53:55 51°24.971 2°46.68 2.7 21 6.5 103520 47
2011-03-21 08:54:00 51°24.985 2°46.663 4 310 6.5 103520 47
2011-03-21 08:54:05 51°25 2°46.646 3 21 6.5 103520 49
2011-03-21 08:54:10 51°25.014 2°46.628 4.1 303 6.5 103520 49
2011-03-21 08:54:15 51°25.029 2°46.611 4.1 21 6.5 103520 47
2011-03-21 08:54:20 51°25.043 2°46.593 4.3 304 6.5 103520 47
2011-03-21 08:54:25 51°25.057 2°46.575 3.1 28 6.4 103520 47
2011-03-21 08:54:30 51°25.071 2°46.558 3.1 309 6.4 103520 47
2011-03-21 08:54:34 51°25.083 2°46.544 2.9 28 6.4 103520 46
2011-03-21 08:54:40 51°25.1 2°46.523 3.3 307 6.4 103520 46
2011-03-21 08:54:45 51°25.114 2°46.506 2.9 23 6.4 103510 47
2011-03-21 08:54:50 51°25.129 2°46.489 3.3 309 6.4 103510 47
2011-03-21 08:54:54 51°25.14 2°46.475 3.4 22 6.4 103510 49
2011-03-21 08:55:00 51°25.158 2°46.454 2.8 307 6.4 103510 49
2011-03-21 08:55:05 51°25.172 2°46.437 2.6 26 6.4 103520 48
2011-03-21 08:55:10 51°25.186 2°46.419 2.6 309 6.4 103520 48
2011-03-21 08:55:14 51°25.198 2°46.405 3.2 20 6.4 103510 49
2011-03-21 08:55:20 51°25.215 2°46.384 3.5 287 6.4 103510 49
2011-03-21 08:55:25 51°25.23 2°46.366 3.2 21 6.4 103520 47
2011-03-21 08:55:30 51°25.244 2°46.35 2.4 303 6.4 103520 47
2011-03-21 08:55:35 51°25.259 2°46.334 3.1 26 6.4 103510 47
2011-03-21 08:55:40 51°25.274 2°46.319 1.8 302 6.4 103510 47
2011-03-21 08:55:45 51°25.29 2°46.306 1.4 21 6.4 103510 48
2011-03-21 08:55:50 51°25.305 2°46.293 1 305 6.4 103510 48
2011-03-21 08:55:55 51°25.321 2°46.281 1 19 6.4 103510 48
2011-03-21 08:56:00 51°25.337 2°46.27 1.2 309 6.4 103510 48
2011-03-21 08:56:05 51°25.352 2°46.258 0.9 22 6.4 103510 47
2011-03-21 08:56:10 51°25.368 2°46.246 1 309 6.4 103510 47
2011-03-21 08:56:15 51°25.384 2°46.235 1 20 6.5 103510 47
2011-03-21 08:56:20 51°25.399 2°46.223 0.8 303 6.5 103510 47
2011-03-21 08:56:25 51°25.415 2°46.212 0.8 21 6.4 103510 48
2011-03-21 08:56:30 51°25.431 2°46.2 1.2 311 6.4 103510 48
2011-03-21 08:56:35 51°25.446 2°46.188 1.2 27 6.5 103510 48
2011-03-21 08:56:40 51°25.462 2°46.176 1.3 306 6.5 103510 48
2011-03-21 08:56:45 51°25.477 2°46.163 1.6 25 6.5 103510 48
2011-03-21 08:56:50 51°25.492 2°46.15 1.5 308 6.5 103510 48
2011-03-21 08:56:54 51°25.505 2°46.139 1.1 26 6.5 103520 49
2011-03-21 08:57:00 51°25.523 2°46.123 1.5 309 6.5 103520 49
2011-03-21 08:57:05 51°25.538 2°46.11 1.2 28 6.4 103510 48
2011-03-21 08:57:10 51°25.553 2°46.098 1.4 308 6.4 103510 48
2011-03-21 08:57:14 51°25.566 2°46.088 1.7 20 6.5 103510 48
2011-03-21 08:57:20 51°25.584 2°46.072 1.5 287 6.5 103510 48
2011-03-21 08:57:25 51°25.599 2°46.06 1.1 20 6.5 103510 49
2011-03-21 08:57:30 51°25.614 2°46.047 0.8 310 6.5 103510 49
2011-03-21 08:57:34 51°25.627 2°46.036 1.3 316 6.5 103510 49
2011-03-21 08:57:40 51°25.645 2°46.022 0.7 303 6.5 103510 49
2011-03-21 08:57:45 51°25.66 2°46.008 1.4 19 6.5 103510 47
2011-03-21 08:57:50 51°25.675 2°45.996 0.8 309 6.5 103510 47
2011-03-21 08:57:55 51°25.69 2°45.982 1.6 22 6.5 103510 49
2011-03-21 08:58:00 51°25.706 2°45.97 1.4 308 6.5 103510 49
2011-03-21 08:58:05 51°25.721 2°45.957 1.6 21 6.5 103510 48
2011-03-21 08:58:10 51°25.736 2°45.946 0.4 306 6.5 103510 48
2011-03-21 08:58:15 51°25.752 2°45.934 0.8 23 6.5 103510 48
2011-03-21 08:58:20 51°25.767 2°45.922 0.7 307 6.5 103510 48
2011-03-21 08:58:25 51°25.782 2°45.911 0.6 26 6.5 103510 48
2011-03-21 08:58:30 51°25.798 2°45.9 1.8 302 6.5 103510 48
2011-03-21 08:58:34 51°25.81 2°45.891 1.3 19 6.5 103510 48
2011-03-21 08:58:40 51°25.829 2°45.878 0.7 308 6.5 103510 48
2011-03-21 08:58:45 51°25.844 2°45.866 1 20 6.5 103510 48
2011-03-21 08:58:50 51°25.86 2°45.855 0.4 305 6.5 103510 48
2011-03-21 08:58:54 51°25.872 2°45.846 1.4 18 6.5 103510 48
2011-03-21 08:59:00 51°25.891 2°45.833 1.2 309 6.5 103510 48
2011-03-21 08:59:05 51°25.907 2°45.822 1.2 22 6.5 103510 48
2011-03-21 08:59:10 51°25.922 2°45.81 1.2 310 6.5 103510 48
2011-03-21 08:59:14 51°25.935 2°45.801 1.5 27 6.5 103510 49
2011-03-21 08:59:20 51°25.953 2°45.787 1.7 285 6.5 103510 49
2011-03-21 08:59:25 51°25.968 2°45.776 0.9 27 6.5 103510 48
2011-03-21 08:59:30 51°25.984 2°45.765 0.8 309 6.5 103510 48
2011-03-21 08:59:34 51°25.996 2°45.755 1.3 26 6.5 103510 48
2011-03-21 08:59:40 51°26.015 2°45.742 0.1 306 6.5 103510 48
2011-03-21 08:59:45 51°26.03 2°45.73 0.1 18 6.5 103510 48
2011-03-21 08:59:50 51°26.045 2°45.719 0.7 301 6.5 103510 48
2011-03-21 08:59:55 51°26.061 2°45.708 0.4 21 6.5 103510 47
2011-03-21 09:00:00 51°26.076 2°45.697 1 301 6.5 103510 47
2011-03-21 09:00:05 51°26.092 2°45.686 0.6 27 6.5 103510 48
2011-03-21 09:00:10 51°26.107 2°45.674 1.5 308 6.5 103510 48
2011-03-21 09:00:15 51°26.123 2°45.663 0.9 26 6.5 103510 47
2011-03-21 09:00:20 51°26.138 2°45.651 0.8 306 6.5 103510 47
2011-03-21 09:00:25 51°26.154 2°45.639 0.7 23 6.5 103510 47
2011-03-21 09:00:30 51°26.169 2°45.627 0.6 309 6.5 103510 47
2011-03-21 09:00:35 51°26.184 2°45.615 0.2 25 6.5 103510 48
2011-03-21 09:00:40 51°26.199 2°45.603 0.7 305 6.5 103510 48
2011-03-21 09:00:45 51°26.215 2°45.592 1.2 25 6.5 103510 48
2011-03-21 09:00:50 51°26.23 2°45.58 0.6 309 6.5 103510 48
2011-03-21 09:00:54 51°26.243 2°45.571 0.6 20 6.5 103510 48
2011-03-21 09:01:00 51°26.261 2°45.557 0.9 309 6.5 103510 48
2011-03-21 09:01:05 51°26.276 2°45.545 0.9 27 6.5 103510 48
2011-03-21 09:01:10 51°26.292 2°45.533 0.9 303 6.5 103510 48
2011-03-21 09:01:14 51°26.304 2°45.524 0.5 21 6.5 103510 49
2011-03-21 09:01:20 51°26.322 2°45.51 0.7 287 6.5 103510 49
2011-03-21 09:01:25 51°26.338 2°45.498 1.1 21 6.5 103510 48
2011-03-21 09:01:30 51°26.353 2°45.486 0.7 307 6.5 103510 48
2011-03-21 09:01:34 51°26.365 2°45.476 0.7 21 6.5 103500 49
2011-03-21 09:01:40 51°26.384 2°45.462 1.1 301 6.5 103500 49
2011-03-21 09:01:45 51°26.399 2°45.45 0.8 27 6.6 103510 48
2011-03-21 09:01:50 51°26.415 2°45.438 0.9 308 6.6 103510 48
2011-03-21 09:01:54 51°26.427 2°45.429 0.9 22 6.6 103510 48
2011-03-21 09:02:00 51°26.445 2°45.414 1.5 307 6.6 103510 48
2011-03-21 09:02:05 51°26.461 2°45.402 1.1 28 6.6 103510 49
2011-03-21 09:02:10 51°26.476 2°45.39 1.8 310 6.6 103510 49
2011-03-21 09:02:15 51°26.492 2°45.378 1.3 22 6.6 103510 48
2011-03-21 09:02:20 51°26.507 2°45.366 1.4 305 6.6 103510 48
2011-03-21 09:02:25 51°26.523 2°45.354 0.7 26 6.6 103510 48
2011-03-21 09:02:30 51°26.539 2°45.342 0.8 303 6.6 103510 48
2011-03-21 09:02:35 51°26.554 2°45.33 0.9 19 6.6 103510 48
2011-03-21 09:02:40 51°26.57 2°45.318 0.8 302 6.6 103510 48
2011-03-21 09:02:45 51°26.585 2°45.306 2 25 6.6 103510 49
2011-03-21 09:02:50 51°26.601 2°45.294 0.9 302 6.6 103510 49
2011-03-21 09:02:55 51°26.617 2°45.282 0.7 26 6.6 103510 49
2011-03-21 09:03:00 51°26.632 2°45.27 0.7 307 6.6 103510 49
2011-03-21 09:03:05 51°26.648 2°45.258 1.3 21 6.6 103510 48
2011-03-21 09:03:10 51°26.664 2°45.246 1.5 303 6.6 103510 48
2011-03-21 09:03:14 51°26.676 2°45.236 0.9 21 6.6 103510 48
2011-03-21 09:03:20 51°26.695 2°45.222 0.5 277 6.6 103510 48
2011-03-21 09:03:25 51°26.71 2°45.21 0.9 21 6.6 103510 48
2011-03-21 09:03:30 51°26.726 2°45.198 0.9 309 6.6 103510 48
2011-03-21 09:03:34 51°26.739 2°45.189 1.2 22 6.6 103510 49
2011-03-21 09:03:40 51°26.758 2°45.175 1 307 6.6 103510 49
2011-03-21 09:03:45 51°26.773 2°45.163 1.3 27 6.6 103510 48
2011-03-21 09:03:50 51°26.789 2°45.151 0.7 302 6.6 103510 48
2011-03-21 09:03:54 51°26.802 2°45.142 1.7 25 6.6 103510 47
2011-03-21 09:04:00 51°26.821 2°45.128 1 307 6.6 103510 47
2011-03-21 09:04:05 51°26.836 2°45.117 1.5 28 6.6 103510 49
2011-03-21 09:04:10 51°26.852 2°45.105 1 306 6.6 103510 49
2011-03-21 09:04:14 51°26.865 2°45.096 0.7 27 6.6 103510 48
2011-03-21 09:04:20 51°26.884 2°45.081 1.5 304 6.6 103510 48
2011-03-21 09:04:25 51°26.899 2°45.069 1.5 26 6.6 103510 49
2011-03-21 09:04:30 51°26.915 2°45.057 1.1 305 6.6 103510 49
2011-03-21 09:04:35 51°26.931 2°45.044 1 20 6.6 103510 49
2011-03-21 09:04:40 51°26.946 2°45.033 0.6 307 6.6 103510 49
2011-03-21 09:04:45 51°26.962 2°45.021 0.8 21 6.6 103510 48
2011-03-21 09:04:50 51°26.978 2°45.009 0.8 303 6.6 103510 48
2011-03-21 09:04:55 51°26.994 2°44.997 1.2 22 6.6 103510 48
2011-03-21 09:05:00 51°27.009 2°44.986 1.1 301 6.6 103510 48
2011-03-21 09:05:05 51°27.025 2°44.974 0.9 25 6.6 103510 49
2011-03-21 09:05:10 51°27.041 2°44.964 2.1 308 6.6 103510 49
2011-03-21 09:05:15 51°27.057 2°44.953 1.4 27 6.6 103510 49
2011-03-21 09:05:20 51°27.073 2°44.942 1.7 283 6.6 103510 49
2011-03-21 09:05:25 51°27.089 2°44.932 2.3 26 6.6 103510 48
2011-03-21 09:05:30 51°27.105 2°44.921 1.2 301 6.6 103510 48
2011-03-21 09:05:34 51°27.117 2°44.913 1 25 6.6 103520 48
2011-03-21 09:05:40 51°27.136 2°44.9 1.4 309 6.6 103520 48
2011-03-21 09:05:45 51°27.152 2°44.888 1 20 6.6 103510 48
2011-03-21 09:05:50 51°27.168 2°44.877 1.1 311 6.6 103510 48
2011-03-21 09:05:54 51°27.18 2°44.868 1.2 317 6.6 103510 49
2011-03-21 09:06:00 51°27.199 2°44.854 0.8 311 6.6 103510 49
2011-03-21 09:06:05 51°27.215 2°44.843 1 19 6.6 103510 49
2011-03-21 09:06:10 51°27.231 2°44.832 1.3 301 6.6 103510 49
2011-03-21 09:06:14 51°27.243 2°44.822 0.2 25 6.6 103510 48
2011-03-21 09:06:20 51°27.262 2°44.809 0.1 306 6.6 103510 48
2011-03-21 09:06:25 51°27.278 2°44.798 -999 23 6.6 103520 47
2011-03-21 09:06:30 51°27.294 2°44.787 -999 306 6.6 103520 47
2011-03-21 09:06:34 51°27.306 2°44.778 -999 23 6.6 103520 49
2011-03-21 09:06:40 51°27.325 2°44.765 -999 306 6.6 103520 49
2011-03-21 09:06:45 51°27.341 2°44.754 -999 23 6.6 103520 49
2011-03-21 09:06:50 51°27.357 2°44.744 -999 306 6.6 103520 49
2011-03-21 09:06:54 51°27.369 2°44.735 -999 23 6.6 103520 49
2011-03-21 09:07:00 51°27.388 2°44.722 -999 306 6.6 103520 49
2011-03-21 09:07:05 51°27.404 2°44.711 -999 23 6.6 103520 49
2011-03-21 09:07:10 51°27.42 2°44.701 -999 306 6.6 103520 49
2011-03-21 09:07:15 51°27.436 2°44.69 -999 23 6.6 103520 49
2011-03-21 09:07:20 51°27.451 2°44.679 -999 283 6.6 103520 49
2011-03-21 09:07:25 51°27.467 2°44.669 0.1 20 6.6 103510 49
2011-03-21 09:07:30 51°27.483 2°44.658 0.1 306 6.6 103510 49
2011-03-21 09:07:34 51°27.496 2°44.649 0.1 23 6.6 103510 49
2011-03-21 09:07:40 51°27.515 2°44.636 -999 306 6.6 103510 49
2011-03-21 09:07:45 51°27.53 2°44.624 -999 23 6.6 103520 49
2011-03-21 09:07:50 51°27.546 2°44.612 -999 306 6.6 103520 49
2011-03-21 09:07:54 51°27.558 2°44.603 -999 23 6.6 103520 49
2011-03-21 09:08:00 51°27.577 2°44.588 -999 306 6.6 103520 49